{"data":{"norad_id":65940,"intl_designator":"2025-226C","name":"2025-226C","alt_names":[],"object_type":"PAYLOAD","status":"ACTIVE","operator":null,"country":"PRC","launch_date":"2025-10-11","launch_site_code":"YSLA","launch_vehicle":null,"mission":null,"orbit_class":"UNKNOWN","rcs_meters":null,"size_class":null,"mass_kg":null,"dimensions":null,"purposes":[],"wikipedia_slug":null,"has_3d_model":false,"image_url":null,"decayed_at":null,"tle_current":{"epoch":"2026-05-25T03:53:11.971968Z","epoch_age_seconds":61201,"freshness":"FRESH","line1":"1 65940U 25226C   26145.16194412  .00007397  00000+0  39323-3 0  9995","line2":"2 65940  97.6349 225.0962 0012882 212.5821 147.4617 15.15510455 34191","mean_motion":15.15510455,"eccentricity":0.0012882,"inclination_deg":97.6349,"raan_deg":225.0962,"arg_perigee_deg":212.5821,"mean_anomaly_deg":147.4617,"bstar":0.00039323,"rev_number":3419,"period_min":95.017490328036,"perigee_km":510.54385241931,"apogee_km":528.31474222774,"semimajor_km":6897.5662973235,"source":"CELESTRAK","updated_at":"2026-05-25T13:38:05.843357Z"}}}